ARIANE 44LP DEB, 33544

Orbit data source: Space-Track

ARIANE 44LP DEB, 33544 is space debris in HEO originally from a launch on Sun, 11 Dec 1988 UTC launched from the French Guiana (FRGUI). Debris objects in space refer to the collection of defunct objects orbiting the Earth. Examples of debris include non-operational satellites, rocket bodies, and fragments generated from explosions, collisions, or faulty payload assembly.

Loading next visibility...
Identifier
33544, 1988-109T
Orbit
HEO
Country
Flag of FRFR
Related business
Manufacturer
Unknown
Mission
Spacecraft
Bus & Motor
Unknown
Mass
Unknown
Launch date (UTC)
1988-12-11 (37 years ago)
Launch vehicle
Unknown
Launch site
French Guiana (FRGUI)
Object type
Payload
Rocket body
Debris
Shape & HBR
Unknown shape, 0.4 m
Radar Cross Section
Medium (>0.1 m² and <1 m²)

Expand to show TLE details & history
Last TLE update: 1 month ago

TLE from 1 month ago
0 ARIANE 44LP DEB
1 33544U 88109T   25356.38038443  .00000407  00000-0  70691-3 0  9996
2 33544   6.5871 118.7021 7154090 287.7371  10.8014  2.37825747199265
Epoch: 2025-12-22T09:07Z
TLE epoch observation values (Epoch: 2025-12-22T09:07:45.214Z)
Latitude
-0.00001°
Longitude
-109.80826°
Altitude
3,084.131 km
Speed
8.211 km/s
True Right ascension
07h 53m 14s
True Declination
0° 00' 00"
Sunlit
Object was in full shadow at epoch
Visualization orbit readout
Latitude
Unknown
Longitude
Unknown
Altitude
Unknown
Speed
Unknown
Apparent Right ascension
Unknown
Apparent Declination
Unknown
Sunlit
N/A
Visualization observer readout
Local Sidereal Time
04:37:38
Azimuth
Unknown
Elevation
Unknown
Doppler factor
Unknown
Orbital elements
Apogee altitude
34,300.058 km
Perigee altitude
370.486 km
Semi-major axis
23,713.409 km
Eccentricity
0.71541
Inclination
6.5871°
RAAN
118.7021°
Arg. of periapsis
287.7371°
True anomaly
72.60008°
Mean anomaly
10.8014°
Eccentric anomaly
33.31442°
Mean motion
0.59436 °/min
Orbital period
605.69 mins
BSTAR
0.00070691
Loading maneuver chart data...
Computing Atmospheric mass density...
Loading historical data...
Loading historical data...
Loading historical data...
Loading historical data...
Loading historical data...
Loading historical data...
Loading historical data...

Documentation

Showing up to 5 results
|